Location: Unspecified
(35.6961°N, 0.0000°E)
Time: 00:28:38
(UTC+00:00)

Vanguard 2 Rocket - Pass Details

Date: 27 May 2019
Orbit: 554 x 3326 km, 32.9° (Epoch: 15 June)

Event Time Altitude Azimuth Distance (km) Brightness Sun altitude
Rises 05:34:49 0° 251° (WSW) 7,311 10.8 7.9°
Reaches altitude 10° 05:39:51 10° 250° (WSW) 6,249 10.5 8.9°
Maximum altitude 05:59:20 75° 169° (S) 2,687 9.5 12.6°
Drops below altitude 10° 06:11:37 10° 87° (E) 4,179 12.4 15.0°
Sets 06:14:18 0° 86° (E) 4,872 12.3 15.6°
